Weather History for KOWB - July, 2013

Change the Weather History Date:

Thursday, July 4, 2013

  Actual Average Record
Temperature  
Mean Temperature 69 °F -  
Max Temperature 73 °F 88 °F 99 °F (2012)
Min Temperature 65 °F 66 °F 53 °F (1968)
Cooling Degree Days 4    
Growing Degree Days 19 (Base 50)    
Moisture  
Dew Point 69 °F    
Average Humidity 94    
Maximum Humidity 100    
Minimum Humidity 82    
Precipitation  
Precipitation 0.00 in - - ()
Sea Level Pressure  
Sea Level Pressure 30.09 in    
Wind  
Wind Speed 3 mph (East)    
Max Wind Speed 10 mph    
Max Gust Speed -    
Visibility 8 miles    
Events      
Averages and records for this station are not official NWS values.
T = Trace of Precipitation, MM = Missing Value Source: NWS Daily Summary

Daily Weather History Graph

Daily Weather History Graph

Search for Another Location

Airport or City:

Trip Planner

Search our weather history database for the weather conditions in past years. The results will help you decide how hot, cold, wet, or windy it might be!

Date:

Astronomy

Jul. 04, 2013 Rise Set
Actual Time 5:32 AM CDT 8:13 PM CDT
Civil Twilight 5:01 AM CDT 8:44 PM CDT
Nautical Twilight 4:22 AM CDT 9:23 PM CDT
Astronomical Twilight 3:38 AM CDT 10:07 PM CDT
Moon 2:47 AM CDT (7/4) 5:19 PM CDT (7/4)
Length of Visible Light 15h 43m
Length of Day
14h 41m
Waning Crescent, 11% of the Moon is Illuminated
Jul 4
Waning Crescent
Jul 8
New
Jul 15
First Quarter
Jul 22
Full
Jul 29
Last Quarter

Hourly Weather History & Observations

Time (CDT) Temp. Dew Point Humidity Pressure Visibility Wind Dir Wind Speed Gust Speed Precip Events Conditions
12:56 AM 68.9 °F 66.9 °F 93% 30.09 in 10.0 mi Calm Calm - N/A   Clear
1:56 AM 66.9 °F 66.9 °F 100% 30.09 in 8.0 mi Calm Calm - N/A   Clear
2:56 AM 65.8 °F 65.8 °F 100% 30.08 in 8.0 mi Calm Calm - N/A   Clear
3:56 AM 65.8 °F 65.8 °F 100% 30.08 in 7.0 mi Calm Calm - N/A   Clear
4:56 AM 65.8 °F 65.8 °F 100% 30.09 in 7.0 mi Calm Calm - N/A   Clear
5:56 AM 68.0 °F 68.0 °F 100% 30.09 in 3.0 mi Calm Calm - N/A   Partly Cloudy
6:56 AM 70.0 °F 70.0 °F 100% 30.09 in 4.0 mi Calm Calm - N/A   Clear
7:56 AM 70.9 °F 70.9 °F 100% 30.10 in 5.0 mi East 4.6 mph - N/A   Clear
8:19 AM 71.6 °F 71.6 °F 100% 30.11 in 5.0 mi ESE 8.1 mph - N/A   Scattered Clouds
8:56 AM 72.0 °F 72.0 °F 100% 30.11 in 4.0 mi ESE 4.6 mph - N/A   Overcast
9:56 AM 72.0 °F 72.0 °F 100% 30.12 in 6.0 mi ESE 8.1 mph - N/A   Overcast
10:56 AM 72.9 °F 70.9 °F 93% 30.11 in 7.0 mi ESE 6.9 mph - N/A   Overcast
11:56 AM 72.9 °F 70.9 °F 93% 30.12 in 7.0 mi ESE 6.9 mph - N/A   Overcast
12:56 PM 72.9 °F 70.9 °F 93% 30.11 in 7.0 mi ESE 8.1 mph - N/A   Overcast
1:56 PM 72.9 °F 68.9 °F 87% 30.10 in 9.0 mi East 8.1 mph - N/A   Overcast
2:56 PM 73.9 °F 68.9 °F 84% 30.08 in 10.0 mi East 5.8 mph - N/A   Mostly Cloudy
3:56 PM 73.9 °F 68.9 °F 84% 30.08 in 10.0 mi East 3.5 mph - 0.00 in   Overcast
4:56 PM 73.9 °F 68.0 °F 82% 30.06 in 10.0 mi East 6.9 mph - N/A   Mostly Cloudy
5:56 PM 72.9 °F 68.0 °F 85% 30.06 in 10.0 mi ESE 10.4 mph - N/A   Mostly Cloudy
6:03 PM 73.4 °F 68.0 °F 83% 30.07 in 10.0 mi East 8.1 mph - N/A   Mostly Cloudy
6:56 PM 70.9 °F 68.9 °F 93% 30.06 in 10.0 mi East 10.4 mph - N/A   Scattered Clouds
7:56 PM 70.9 °F 68.9 °F 93% 30.05 in 10.0 mi East 6.9 mph - N/A   Partly Cloudy
8:56 PM 68.9 °F 68.9 °F 100% 30.06 in 10.0 mi East 9.2 mph - N/A   Partly Cloudy
9:56 PM 68.0 °F 66.9 °F 96% 30.08 in 10.0 mi ESE 5.8 mph - 0.00 in   Partly Cloudy
10:43 PM 68.0 °F 66.2 °F 94% 30.09 in 10.0 mi East 4.6 mph - N/A   Mostly Cloudy
10:56 PM 68.0 °F 66.9 °F 96% 30.09 in 10.0 mi East 4.6 mph - N/A   Mostly Cloudy
11:56 PM 66.9 °F 66.9 °F 100% 30.08 in 10.0 mi ENE 5.8 mph - N/A   Overcast